User: anonymous   Login
Location: Luz Observatory
(34.5000°N, 117.2833°W)
Time: 21:00:43
(UTC-08:00)
Language:

Cosmos 1452 Rocket - Orbit

View from above orbital plane
View from above orbital plane
View from above satellite
View from above satellite

Ground track
Ground track

The orbit data is extracted from the following two-line orbital elements,

1 13992U 83031B   17023.87116191  .00000011  00000-0  12881-4 0  9992
2 13992  74.0533 271.8294 0006120 284.7137 124.9538 14.36071198768094
Epoch (UTC): 23 January 2017 20:54:28
Eccentricity: 0.0006120
inclination: 74.0533°
perigee height: 767 km
apogee height: 776 km
right ascension of ascending node: 271.8294°
argument of perigee: 284.7137°
revolutions per day: 14.36071198
mean anomaly at epoch: 124.9538°
orbit number at epoch: 76809

The dashed part of the orbit path shows where the satellite is in the earth's shadow,  

DLR